Location: Ashton River Estates
(39.1762°N, 77.0261°W)
Time: 19:39:09
(UTC+00:00)

Cosmos 1953 Rocket - Pass Details

Date: 29 October 2020
Orbit: 605 x 634 km, 82.5° (Epoch: 02 December)

Event Time Altitude Azimuth Distance (km) Brightness Sun altitude
Rises 23:03:35 0° 348° (NNW) 2,906 7.1 -10.9°
Reaches altitude 10° 23:05:50 10° 344° (NNW) 2,000 6.3 -11.4°
Maximum altitude 23:10:11 58° 266° (W) 734 4.3 -12.2°
Drops below altitude 10° 23:14:32 10° 188° (S) 2,001 6.4 -13.1°
Sets 23:16:47 0° 184° (S) 2,907 7.2 -13.5°
